�������l�o���
Date,Time,MP-1(��Sv/h),MP-2(��Sv/h),MP-3(��Sv/h),MP-4(��Sv/h),MP-5(��Sv/h),MP-6(��Sv/h),MP-7(��Sv/h),MP-8(��Sv/h),����,����(m/s),���J
2023/12/20,00:00,0.509,0.771,0.483,0.967,0.693,0.312,0.559,0.524,���쐼,1.2,��
2023/12/20,00:10,0.509,0.769,0.483,0.967,0.694,0.311,0.560,0.525,��,3.6,��
2023/12/20,00:20,0.509,0.770,0.482,0.967,0.697,0.312,0.559,0.524,��,4.2,��
2023/12/20,00:30,0.511,0.770,0.484,0.968,0.694,0.312,0.558,0.524,��쓌,1.2,��
2023/12/20,00:40,0.509,0.773,0.482,0.968,0.695,0.311,0.559,0.523,���쐼,1.2,��
2023/12/20,00:50,0.510,0.771,0.484,0.967,0.695,0.313,0.559,0.524,���쐼,0.6,��
2023/12/20,01:00,0.510,0.772,0.482,0.968,0.695,0.312,0.559,0.523,��,1.7,��
2023/12/20,01:10,0.509,0.771,0.481,0.967,0.694,0.312,0.558,0.524,��쐼,2.2,��
2023/12/20,01:20,0.509,0.774,0.483,0.969,0.696,0.312,0.560,0.523,��쐼,3.1,��
2023/12/20,01:30,0.509,0.770,0.482,0.967,0.696,0.313,0.559,0.523,��,3.5,��
2023/12/20,01:40,0.511,0.769,0.482,0.968,0.695,0.314,0.558,0.524,��,4.3,��
2023/12/20,01:50,0.509,0.771,0.481,0.966,0.696,0.313,0.558,0.523,��,4.3,��
2023/12/20,02:00,0.508,0.771,0.482,0.968,0.697,0.312,0.559,0.524,��,3.3,��
2023/12/20,02:10,0.510,0.771,0.481,0.969,0.695,0.313,0.558,0.524,��,3.0,��
2023/12/20,02:20,0.509,0.772,0.484,0.967,0.694,0.313,0.559,0.525,��쐼,3.5,��
2023/12/20,02:30,0.508,0.772,0.482,0.968,0.695,0.312,0.558,0.524,��쐼,3.6,��
2023/12/20,02:40,0.508,0.770,0.482,0.969,0.694,0.313,0.559,0.524,�쐼,4.6,��
2023/12/20,02:50,0.509,0.770,0.483,0.970,0.696,0.311,0.559,0.524,�쐼,5.2,��
2023/12/20,03:00,0.510,0.770,0.484,0.969,0.696,0.311,0.559,0.526,��쐼,5.4,��
2023/12/20,03:10,0.510,0.772,0.482,0.968,0.695,0.313,0.558,0.523,��쐼,4.0,��
2023/12/20,03:20,0.508,0.772,0.483,0.967,0.695,0.313,0.559,0.525,�쐼,2.6,��
2023/12/20,03:30,0.510,0.772,0.483,0.966,0.695,0.313,0.558,0.524,���쐼,1.5,��
2023/12/20,03:40,0.510,0.771,0.483,0.967,0.695,0.313,0.560,0.524,�쐼,1.5,��
2023/12/20,03:50,0.509,0.772,0.482,0.968,0.695,0.315,0.559,0.524,��쐼,0.9,��
2023/12/20,04:00,0.511,0.771,0.482,0.967,0.696,0.312,0.559,0.523,��쐼,1.8,��
2023/12/20,04:10,0.510,0.773,0.483,0.968,0.695,0.312,0.558,0.525,�쐼,3.6,��
2023/12/20,04:20,0.511,0.773,0.484,0.969,0.695,0.312,0.560,0.524,�쐼,5.5,��
2023/12/20,04:30,0.510,0.771,0.482,0.967,0.694,0.312,0.560,0.523,�쐼,7.8,��
2023/12/20,04:40,0.511,0.771,0.483,0.967,0.696,0.313,0.559,0.524,�쐼,7.1,��
2023/12/20,04:50,0.511,0.771,0.483,0.967,0.694,0.314,0.562,0.526,��쐼,6.2,��
2023/12/20,05:00,0.510,0.771,0.483,0.967,0.696,0.313,0.561,0.524,��쐼,5.0,��
2023/12/20,05:10,0.508,0.772,0.483,0.968,0.694,0.313,0.560,0.524,��쐼,5.3,��
2023/12/20,05:20,0.509,0.769,0.484,0.968,0.696,0.313,0.560,0.525,��쐼,6.0,��
2023/12/20,05:30,0.509,0.772,0.484,0.968,0.696,0.314,0.560,0.524,�쐼,5.7,��
2023/12/20,05:40,0.510,0.770,0.482,0.970,0.695,0.312,0.560,0.524,��쐼,4.1,��
2023/12/20,05:50,0.509,0.770,0.485,0.967,0.695,0.313,0.560,0.525,�쐼,3.3,��
2023/12/20,06:00,0.510,0.772,0.482,0.970,0.694,0.312,0.559,0.525,���쐼,4.0,��
2023/12/20,06:10,0.510,0.770,0.484,0.968,0.696,0.314,0.559,0.525,�쐼,2.9,��
2023/12/20,06:20,0.508,0.771,0.482,0.969,0.695,0.313,0.560,0.524,�쐼,2.6,��
2023/12/20,06:30,0.509,0.770,0.484,0.969,0.696,0.312,0.560,0.525,���쐼,2.0,��
2023/12/20,06:40,0.509,0.769,0.483,0.970,0.695,0.311,0.561,0.525,��,2.6,��
2023/12/20,06:50,0.509,0.770,0.482,0.969,0.694,0.313,0.560,0.523,���k��,3.8,��
2023/12/20,07:00,0.509,0.771,0.483,0.967,0.694,0.313,0.559,0.525,��,2.9,��
2023/12/20,07:10,0.511,0.771,0.483,0.968,0.694,0.314,0.560,0.524,��,2.3,��
2023/12/20,07:20,0.510,0.770,0.483,0.967,0.695,0.314,0.559,0.525,���쐼,1.7,��
2023/12/20,07:30,0.510,0.770,0.482,0.970,0.695,0.312,0.560,0.524,-,CALM,��
2023/12/20,07:40,0.510,0.771,0.485,0.968,0.694,0.314,0.560,0.523,�k�k��,1.7,��
2023/12/20,07:50,0.510,0.772,0.483,0.967,0.694,0.313,0.560,0.525,�k��,0.9,��
2023/12/20,08:00,0.509,0.771,0.485,0.969,0.695,0.312,0.560,0.524,���쐼,2.3,��
2023/12/20,08:10,0.510,0.770,0.483,0.968,0.694,0.312,0.561,0.524,�k�k��,2.5,��
2023/12/20,08:20,0.511,0.770,0.481,0.969,0.695,0.312,0.563,0.525,�k,4.6,��
2023/12/20,08:30,0.510,0.771,0.484,0.971,0.695,0.313,0.560,0.525,��,2.0,��
2023/12/20,08:40,0.511,0.772,0.483,0.969,0.694,0.312,0.560,0.525,���k��,2.6,��
2023/12/20,08:50,0.510,0.771,0.483,0.969,0.695,0.312,0.561,0.524,�k��,4.8,��
2023/12/20,09:00,0.512,0.772,0.483,0.968,0.695,0.312,0.561,0.525,�k��,2.3,��
2023/12/20,09:10,0.511,0.772,0.484,0.968,0.694,0.312,0.561,0.526,�k��,1.9,��
2023/12/20,09:20,0.511,0.774,0.484,0.969,0.698,0.313,0.561,0.525,�k��,2.8,��
2023/12/20,09:30,0.511,0.771,0.484,0.969,0.696,0.313,0.562,0.525,�k��,2.6,��
2023/12/20,09:40,0.511,0.771,0.485,0.969,0.695,0.312,0.561,0.525,�k��,2.0,��
2023/12/20,09:50,0.513,0.771,0.486,0.969,0.696,0.313,0.560,0.526,���k��,2.2,��
2023/12/20,10:00,0.511,0.772,0.484,0.970,0.696,0.314,0.558,0.524,�쐼,3.8,��
2023/12/20,10:10,0.511,0.770,0.483,0.969,0.695,0.314,0.561,0.525,��,6.1,��
2023/12/20,10:20,0.512,0.773,0.483,0.971,0.696,0.314,0.560,0.525,��,6.6,��
2023/12/20,10:30,0.511,0.771,0.483,0.969,0.695,0.316,0.560,0.525,��,7.2,��
2023/12/20,10:40,0.511,0.771,0.485,0.972,0.695,0.314,0.559,0.526,��,7.5,��
2023/12/20,10:50,0.510,0.771,0.485,0.971,0.696,0.312,0.560,0.526,��,6.3,��
2023/12/20,11:00,0.511,0.772,0.486,0.971,0.697,0.314,0.561,0.527,��,6.2,��
2023/12/20,11:10,0.511,0.772,0.487,0.972,0.696,0.314,0.560,0.525,��,5.9,��
2023/12/20,11:20,0.513,0.771,0.486,0.971,0.698,0.315,0.560,0.525,��,7.8,��
2023/12/20,11:30,0.512,0.770,0.485,0.973,0.697,0.314,0.559,0.527,���k��,7.7,��
2023/12/20,11:40,0.510,0.772,0.487,0.973,0.699,0.314,0.561,0.526,���k��,6.4,��
2023/12/20,11:50,0.512,0.771,0.485,0.973,0.700,0.314,0.559,0.528,���k��,6.5,��
2023/12/20,12:00,0.513,0.770,0.485,0.972,0.699,0.314,0.560,0.527,���k��,9.3,��
2023/12/20,12:10,0.512,0.773,0.486,0.973,0.698,0.316,0.560,0.527,���k��,7.2,��
2023/12/20,12:20,0.511,0.772,0.484,0.973,0.698,0.315,0.563,0.527,���k��,3.7,��
2023/12/20,12:30,0.512,0.773,0.485,0.973,0.699,0.314,0.561,0.527,��,6.0,��
2023/12/20,12:40,0.511,0.774,0.486,0.974,0.699,0.315,0.562,0.527,���k��,8.8,��
2023/12/20,12:50,0.511,0.772,0.486,0.975,0.699,0.316,0.561,0.528,���k��,9.2,��
2023/12/20,13:00,0.511,0.773,0.486,0.973,0.699,0.315,0.561,0.527,��,6.5,��
2023/12/20,13:10,0.511,0.772,0.486,0.973,0.700,0.315,0.562,0.526,���k��,8.2,��
2023/12/20,13:20,0.511,0.772,0.484,0.975,0.700,0.315,0.564,0.527,�k�k��,6.3,��
2023/12/20,13:30,0.510,0.772,0.485,0.974,0.699,0.315,0.562,0.526,�k,7.2,��
2023/12/20,13:40,0.513,0.774,0.484,0.972,0.700,0.314,0.562,0.525,�k,6.5,��
2023/12/20,13:50,0.512,0.773,0.486,0.975,0.699,0.313,0.562,0.525,�k,8.2,��
2023/12/20,14:00,0.511,0.774,0.485,0.972,0.699,0.312,0.563,0.528,�k,8.6,��
2023/12/20,14:10,0.512,0.771,0.486,0.973,0.698,0.314,0.563,0.526,�k,8.5,��
2023/12/20,14:20,0.512,0.772,0.485,0.974,0.699,0.313,0.562,0.525,�k�k��,8.8,��
2023/12/20,14:30,0.511,0.771,0.485,0.973,0.697,0.314,0.562,0.527,�k,8.1,��
2023/12/20,14:40,0.513,0.773,0.485,0.977,0.698,0.313,0.564,0.526,�k,8.9,��
2023/12/20,14:50,0.512,0.775,0.486,0.974,0.700,0.314,0.563,0.529,�k,9.8,��
2023/12/20,15:00,0.512,0.775,0.486,0.974,0.698,0.314,0.563,0.527,�k,8.6,��
2023/12/20,15:10,0.513,0.776,0.485,0.975,0.700,0.313,0.564,0.529,�k,8.3,��
2023/12/20,15:20,0.512,0.775,0.486,0.974,0.698,0.314,0.563,0.529,�k,8.6,��
2023/12/20,15:30,0.512,0.774,0.486,0.973,0.699,0.314,0.564,0.527,�k,8.4,��
2023/12/20,15:40,0.511,0.777,0.485,0.974,0.697,0.315,0.564,0.526,�k,7.7,��
2023/12/20,15:50,0.510,0.774,0.485,0.973,0.698,0.315,0.562,0.526,�k,7.0,��
2023/12/20,16:00,0.512,0.776,0.486,0.972,0.696,0.313,0.564,0.528,�k,7.2,��
2023/12/20,16:10,0.512,0.774,0.486,0.972,0.697,0.314,0.562,0.525,�k,5.9,��
2023/12/20,16:20,0.513,0.774,0.485,0.972,0.697,0.314,0.563,0.527,�k�k��,7.1,��
2023/12/20,16:30,0.512,0.774,0.486,0.972,0.698,0.313,0.564,0.527,�k�k��,7.5,��
2023/12/20,16:40,0.513,0.775,0.485,0.974,0.699,0.315,0.563,0.527,�k�k��,7.7,��
2023/12/20,16:50,0.513,0.775,0.488,0.973,0.699,0.315,0.563,0.526,�k,6.3,��
2023/12/20,17:00,0.513,0.777,0.484,0.974,0.699,0.313,0.562,0.526,�k�k��,6.4,��
2023/12/20,17:10,0.513,0.775,0.484,0.974,0.699,0.313,0.563,0.526,�k�k��,6.2,��
2023/12/20,17:20,0.512,0.774,0.485,0.971,0.698,0.312,0.563,0.526,�k�k��,5.8,��
2023/12/20,17:30,0.514,0.774,0.482,0.973,0.699,0.313,0.564,0.526,�k�k��,5.9,��
2023/12/20,17:40,0.512,0.775,0.483,0.974,0.696,0.314,0.563,0.527,�k�k��,6.2,��
2023/12/20,17:50,0.511,0.776,0.485,0.975,0.697,0.314,0.561,0.526,�k�k��,6.0,��
2023/12/20,18:00,0.510,0.776,0.484,0.973,0.698,0.313,0.562,0.525,�k�k��,6.3,��
2023/12/20,18:10,0.512,0.777,0.486,0.975,0.696,0.313,0.563,0.526,�k�k��,7.1,��
2023/12/20,18:20,0.513,0.777,0.484,0.973,0.698,0.315,0.563,0.525,�k�k��,7.3,��
2023/12/20,18:30,0.511,0.774,0.485,0.974,0.697,0.314,0.563,0.527,�k�k��,7.1,��
2023/12/20,18:40,0.513,0.776,0.484,0.973,0.696,0.313,0.561,0.526,�k�k��,7.7,��
2023/12/20,18:50,0.511,0.776,0.486,0.971,0.699,0.313,0.563,0.525,�k�k��,7.9,��
2023/12/20,19:00,0.512,0.774,0.486,0.973,0.698,0.313,0.562,0.525,�k�k��,6.9,��
2023/12/20,19:10,0.513,0.774,0.484,0.972,0.698,0.313,0.562,0.524,�k�k��,6.4,��
2023/12/20,19:20,0.512,0.776,0.483,0.974,0.699,0.313,0.561,0.525,�k�k��,6.7,��
2023/12/20,19:30,0.512,0.774,0.485,0.975,0.698,0.314,0.563,0.527,�k�k��,7.1,��
2023/12/20,19:40,0.511,0.776,0.485,0.973,0.699,0.313,0.562,0.525,�k�k��,7.4,��
2023/12/20,19:50,0.512,0.774,0.484,0.975,0.698,0.314,0.563,0.524,�k�k��,6.5,��
2023/12/20,20:00,0.510,0.775,0.484,0.972,0.698,0.313,0.562,0.526,�k�k��,7.0,��
2023/12/20,20:10,0.511,0.774,0.484,0.972,0.699,0.313,0.562,0.526,�k��,7.7,��
2023/12/20,20:20,0.511,0.772,0.484,0.972,0.699,0.313,0.563,0.525,�k�k��,7.2,��
2023/12/20,20:30,0.512,0.776,0.484,0.973,0.699,0.313,0.562,0.525,�k�k��,7.7,��
2023/12/20,20:40,0.511,0.774,0.485,0.971,0.699,0.313,0.563,0.526,�k�k��,7.4,��
2023/12/20,20:50,0.511,0.776,0.483,0.974,0.701,0.313,0.562,0.527,�k�k��,7.5,��
2023/12/20,21:00,0.513,0.775,0.483,0.975,0.699,0.312,0.562,0.526,�k��,7.0,��
2023/12/20,21:10,0.512,0.775,0.484,0.971,0.697,0.313,0.563,0.526,�k��,7.5,��
2023/12/20,21:20,0.510,0.774,0.485,0.972,0.698,0.313,0.561,0.526,�k�k��,6.4,��
2023/12/20,21:30,0.512,0.774,0.486,0.974,0.697,0.313,0.562,0.526,�k��,7.0,�L
2023/12/20,21:40,0.511,0.777,0.484,0.976,0.701,0.314,0.563,0.527,�k�k��,7.3,�L
2023/12/20,21:50,0.511,0.776,0.485,0.972,0.699,0.313,0.563,0.526,�k��,6.1,�L
2023/12/20,22:00,0.512,0.776,0.486,0.973,0.701,0.313,0.563,0.526,�k�k��,6.9,�L
2023/12/20,22:10,0.511,0.776,0.486,0.973,0.699,0.315,0.562,0.525,�k�k��,7.6,�L
2023/12/20,22:20,0.512,0.773,0.484,0.974,0.700,0.314,0.562,0.526,�k��,7.1,��
2023/12/20,22:30,0.512,0.775,0.487,0.973,0.700,0.314,0.563,0.527,�k�k��,6.7,�L
2023/12/20,22:40,0.511,0.775,0.485,0.976,0.699,0.313,0.562,0.527,�k�k��,7.6,�L
2023/12/20,22:50,0.510,0.774,0.485,0.973,0.701,0.313,0.562,0.527,�k��,6.9,�L
2023/12/20,23:00,0.512,0.775,0.485,0.974,0.698,0.313,0.561,0.527,�k��,8.1,�L
2023/12/20,23:10,0.512,0.775,0.484,0.972,0.698,0.313,0.562,0.526,�k�k��,7.1,�L
2023/12/20,23:20,0.513,0.774,0.484,0.973,0.698,0.314,0.564,0.526,�k�k��,7.4,�L
2023/12/20,23:30,0.511,0.774,0.484,0.973,0.696,0.312,0.563,0.527,�k�k��,6.7,��
2023/12/20,23:40,0.512,0.774,0.484,0.972,0.697,0.314,0.561,0.526,�k��,7.6,��
2023/12/20,23:50,0.511,0.775,0.484,0.972,0.699,0.313,0.562,0.527,�k�k��,7.5,��
